Tracking 25620 objects as of 18-May-2022
HD Live streaming from Space Station
objects crossing your sky now

COSMOS 2251 DEB

Track COSMOS 2251 DEB now!
10-day predictions


NORAD ID: 33936
Int'l Code: 1993-036ER
Perigee: 712.5 km
Apogee: 761.7 km
Inclination: 74.0 °
Period: 99.4 minutes
Semi major axis: 7108 km
RCS: 0.0956 m2 (small)
Launch date: June 16, 1993
Source: Commonwealth of Independent States (former USSR) (CIS)
Launch site: PLESETSK MISSILE AND SPACE COMPLEX (PKMTR)

Note: This is SATELLITE DEBRIS
aabbcc
Your satellite tracking list
Your tracking list is empty




NASA's NSSDC Master Catalog

Two Line Element Set (TLE):
1 33936U 93036ER  22137.32156002  .00002079  00000-0  55472-3 0  9993
2 33936  74.0223 345.0760 0034639  97.5022 263.0075 14.48688347699234
Source of the keplerian elements: AFSPC